Simultaneous Nadir Overpasses (SNOs) Predictions

Prediction of SNOs between GOES-17 and METOP-C Satellite Orbit:

Table of predicted SNOs for the next 14.0 days since TLE Epoch: 3/19/2022
Index Date Time (GOES-17) GOES-17 Lat,Lon METOP-C Lat,Lon Distance(km) Time Diff (sec)
1 03/19/2022 06:32:20 -0.04,-137.20 0.31,-135.60 181.94 80
2 03/20/2022 18:53:53 0.04,-137.21 0.69,-140.17 337.18 80
3 03/21/2022 18:30:33 0.04,-137.21 -0.41,-135.18 231.79 80
4 03/23/2022 06:52:13 -0.04,-137.20 -0.63,-139.77 292.88 80
5 03/24/2022 06:28:54 -0.03,-137.19 0.53,-134.78 275.39 80
6 03/25/2022 18:47:46 0.03,-137.19 0.52,-139.34 245.75 80
7 03/26/2022 18:29:47 0.03,-137.18 -0.58,-134.35 322.18 80
8 03/28/2022 06:48:46 -0.03,-137.15 -0.45,-138.94 203.63 80
9 03/29/2022 06:25:27 -0.03,-137.14 0.66,-133.94 364.22 80
10 03/30/2022 18:44:20 0.03,-137.13 0.33,-138.51 157.35 80
11 03/31/2022 18:26:21 0.03,-137.12 -0.77,-133.52 410.50 80
